| time (UTC) | temp F | wind direction | speed knots | gust knots | rain 1hr in | rain 24hr in | rain mn in | humidity % | barometer mb |
| 20260506023007 | 36 | 333 | 0.0 | 0.0 | 0.00 | 0.00 | 0.00 | 79 | 1014.6 |
| 20260506021504 | 36 | 5 | 0.0 | 0.0 | 0.00 | 0.00 | 0.00 | 80 | 1014.6 |
| 20260506020002 | 35 | 9 | 0.0 | 0.0 | 0.00 | 0.00 | 0.00 | 80 | 1014.6 |
| 20260506014501 | 35 | 331 | 0.0 | 0.0 | 0.00 | 0.00 | 0.00 | 79 | 1014.7 |
| 20260506013106 | 36 | 331 | 0.0 | 0.0 | 0.00 | 0.00 | 0.00 | 79 | 1014.7 |
| 20260506011623 | 36 | 333 | 0.0 | 0.0 | 0.00 | 0.00 | 0.00 | 79 | 1014.6 |
| 20260506010106 | 36 | 328 | 0.0 | 0.0 | 0.00 | 0.00 | 0.00 | 79 | 1014.7 |
| 20260506004554 | 37 | 328 | 0.0 | 0.0 | 0.00 | 0.00 | 0.00 | 79 | 1014.7 |
| 20260506003055 | 37 | 338 | 0.9 | 2.6 | 0.00 | 0.00 | 0.00 | 79 | 1014.7 |
| 20260506001550 | 37 | 323 | 0.0 | 0.0 | 0.00 | 0.00 | 0.00 | 78 | 1014.8 |
| 20260506000057 | 38 | 328 | 1.7 | 3.5 | 0.00 | 0.00 | 0.00 | 78 | 1014.7 |
| 20260505234548 | 38 | 324 | 0.9 | 2.6 | 0.00 | 0.00 | 0.00 | 78 | 1014.7 |
| 20260505233046 | 38 | 330 | 0.9 | 3.5 | 0.00 | 0.00 | 0.00 | 77 | 1014.7 |
| 20260505231545 | 38 | 322 | 0.0 | 0.0 | 0.00 | 0.00 | 0.00 | 77 | 1014.7 |
| 20260505230043 | 38 | 322 | 0.0 | 0.0 | 0.00 | 0.00 | 0.00 | 77 | 1014.6 |
| 20260505224542 | 38 | 322 | 0.0 | 0.0 | 0.00 | 0.00 | 0.00 | 76 | 1014.7 |
| 20260505223039 | 38 | 322 | 0.0 | 0.0 | 0.00 | 0.00 | 0.00 | 75 | 1014.7 |
| 20260505221541 | 38 | 322 | 0.0 | 0.0 | 0.00 | 0.00 | 0.00 | 75 | 1014.7 |
| 20260505220048 | 38 | 321 | 0.0 | 0.0 | 0.00 | 0.00 | 0.00 | 74 | 1014.7 |
| 20260505214534 | 38 | 313 | 0.0 | 0.0 | 0.00 | 0.00 | 0.00 | 73 | 1014.7 |
| 20260505213037 | 39 | 309 | 0.0 | 0.0 | 0.00 | 0.00 | 0.00 | 72 | 1014.7 |
| 20260505211538 | 39 | 314 | 0.0 | 2.6 | 0.00 | 0.00 | 0.00 | 71 | 1014.6 |
| 20260505210036 | 40 | 339 | 1.7 | 5.2 | 0.00 | 0.00 | 0.00 | 70 | 1014.6 |
| 20260505204530 | 40 | 294 | 2.6 | 6.1 | 0.00 | 0.00 | 0.00 | 68 | 1014.6 |
| 20260505203030 | 41 | 296 | 2.6 | 7.8 | 0.00 | 0.00 | 0.00 | 68 | 1014.5 |
| 20260505201629 | 41 | 264 | 2.6 | 7.0 | 0.00 | 0.00 | 0.00 | 69 | 1014.7 |
| 20260505200028 | 41 | 311 | 1.7 | 5.2 | 0.00 | 0.00 | 0.00 | 71 | 1014.7 |
| 20260505194527 | 41 | 301 | 1.7 | 7.0 | 0.00 | 0.00 | 0.00 | 69 | 1014.6 |
| 20260505193034 | 41 | 298 | 2.6 | 8.7 | 0.00 | 0.00 | 0.00 | 67 | 1014.5 |
| 20260505191525 | 42 | 313 | 3.5 | 7.0 | 0.00 | 0.00 | 0.00 | 68 | 1014.4 |
| 20260505190023 | 42 | 289 | 5.2 | 10.4 | 0.00 | 0.00 | 0.00 | 68 | 1014.2 |
| 20260505184523 | 43 | 330 | 2.6 | 8.7 | 0.00 | 0.00 | 0.00 | 65 | 1014.1 |
| 20260505183031 | 43 | 329 | 3.5 | 9.6 | 0.00 | 0.00 | 0.00 | 66 | 1014.0 |
| 20260505181520 | 43 | 318 | 2.6 | 8.7 | 0.00 | 0.00 | 0.00 | 63 | 1014.1 |
| 20260505180021 | 43 | 321 | 3.5 | 7.8 | 0.00 | 0.00 | 0.00 | 60 | 1014.0 |
| 20260505174519 | 44 | 286 | 3.5 | 10.4 | 0.00 | 0.00 | 0.00 | 62 | 1014.0 |
| 20260505173019 | 43 | 269 | 3.5 | 12.2 | 0.00 | 0.00 | 0.00 | 70 | 1013.9 |
| 20260505171519 | 44 | 317 | 7.8 | 11.3 | 0.00 | 0.00 | 0.00 | 70 | 1014.0 |
| 20260505170020 | 44 | 312 | 7.0 | 12.2 | 0.00 | 0.00 | 0.00 | 61 | 1013.9 |
| 20260505164517 | 44 | 342 | 5.2 | 10.4 | 0.00 | 0.00 | 0.00 | 61 | 1013.9 |
| 20260505163017 | 43 | 275 | 3.5 | 8.7 | 0.00 | 0.00 | 0.00 | 69 | 1013.9 |
| 20260505161516 | 44 | 245 | 7.0 | 11.3 | 0.00 | 0.00 | 0.00 | 63 | 1013.9 |
| 20260505153012 | 45 | 289 | 6.1 | 14.8 | 0.00 | 0.01 | 0.00 | 65 | 1013.9 |
| 20260505151511 | 44 | 323 | 7.0 | 12.2 | 0.00 | 0.01 | 0.00 | 64 | 1014.0 |
| 20260505124609 | 41 | 257 | 7.0 | 12.2 | 0.00 | 0.01 | 0.00 | 79 | 1014.2 |
| 20260505123059 | 42 | 294 | 10.4 | 15.6 | 0.00 | 0.01 | 0.00 | 77 | 1014.2 |
| 20260505121553 | 43 | 292 | 6.1 | 11.3 | 0.00 | 0.01 | 0.00 | 70 | 1014.0 |
| 20260505114652 | 42 | 227 | 4.3 | 8.7 | 0.00 | 0.01 | 0.00 | 68 | 1013.9 |
| 20260505113109 | 42 | 249 | 5.2 | 8.7 | 0.00 | 0.01 | 0.00 | 68 | 1013.9 |
| 20260505111547 | 42 | 246 | 3.5 | 7.8 | 0.00 | 0.01 | 0.00 | 66 | 1013.8 |
| 20260505101542 | 40 | 262 | 3.5 | 7.0 | 0.00 | 0.01 | 0.00 | 74 | 1013.7 |
| 20260505100040 | 40 | 264 | 5.2 | 8.7 | 0.00 | 0.01 | 0.00 | 75 | 1013.7 |
| 20260505094539 | 40 | 263 | 5.2 | 8.7 | 0.00 | 0.01 | 0.00 | 74 | 1013.8 |
| 20260505093038 | 40 | 297 | 5.2 | 9.6 | 0.00 | 0.01 | 0.00 | 74 | 1013.9 |
| 20260505091536 | 41 | 299 | 5.2 | 8.7 | 0.00 | 0.01 | 0.00 | 66 | 1013.8 |
| 20260505090034 | 41 | 304 | 2.6 | 7.0 | 0.00 | 0.01 | 0.00 | 64 | 1013.7 |
| 20260505084543 | 42 | 157 | 0.9 | 2.6 | 0.00 | 0.01 | 0.00 | 60 | 1013.5 |
| 20260505083031 | 42 | 180 | 0.9 | 2.6 | 0.00 | 0.01 | 0.00 | 60 | 1013.4 |
| 20260505081529 | 43 | 145 | 0.9 | 3.5 | 0.00 | 0.01 | 0.00 | 59 | 1013.3 |
| 20260505080026 | 42 | 74 | 0.9 | 2.6 | 0.00 | 0.01 | 0.00 | 62 | 1013.1 |
| 20260505074523 | 41 | 314 | 1.7 | 5.2 | 0.00 | 0.01 | 0.00 | 61 | 1013.0 |
| 20260505073025 | 41 | 221 | 0.0 | 0.0 | 0.00 | 0.01 | 0.00 | 63 | 1013.1 |
| 20260505071520 | 41 | 247 | 0.0 | 0.0 | 0.00 | 0.01 | 0.00 | 66 | 1013.0 |
| 20260505070016 | 41 | 281 | 0.0 | 0.0 | 0.00 | 0.01 | 0.00 | 67 | 1013.0 |
| 20260505064512 | 41 | 321 | 0.0 | 0.0 | 0.00 | 0.01 | 0.00 | 67 | 1013.0 |
| 20260505063011 | 40 | 184 | 0.0 | 0.0 | 0.00 | 0.01 | 0.00 | 67 | 1012.9 |
| 20260505061515 | 40 | 205 | 0.0 | 0.0 | 0.00 | 0.01 | 0.00 | 70 | 1013.0 |
| 20260505060010 | 40 | 152 | 0.0 | 0.0 | 0.00 | 0.01 | 0.00 | 73 | 1013.1 |
| 20260505054505 | 40 | 130 | 0.0 | 0.0 | 0.00 | 0.01 | 0.00 | 77 | 1013.1 |
| 20260505053005 | 39 | 45 | 0.0 | 0.0 | 0.00 | 0.01 | 0.00 | 80 | 1013.2 |
| 20260505051600 | 39 | 348 | 0.0 | 0.0 | 0.00 | 0.01 | 0.00 | 80 | 1013.2 |
| 20260505051502 | 39 | 348 | 0.0 | 0.0 | 0.00 | 0.01 | 0.00 | 81 | 1013.2 |
| 20260505050109 | 38 | 5 | 0.0 | 0.0 | 0.00 | 0.01 | 0.00 | 80 | 1013.1 |
| 20260505041555 | 37 | 338 | 0.0 | 0.0 | 0.00 | 0.01 | 0.00 | 81 | 1012.6 |
| 20260505040054 | 37 | 338 | 0.0 | 0.9 | 0.00 | 0.01 | 0.00 | 82 | 1012.5 |
| 20260505034614 | 37 | 338 | 0.0 | 1.7 | 0.00 | 0.01 | 0.00 | 83 | 1012.3 |
| 20260505033056 | 36 | 338 | 0.0 | 0.0 | 0.00 | 0.01 | 0.00 | 83 | 1012.5 |
| 20260505031555 | 36 | 338 | 0.0 | 0.0 | 0.00 | 0.01 | 0.00 | 82 | 1012.6 |
| 20260505030053 | 35 | 338 | 0.0 | 1.7 | 0.00 | 0.01 | 0.00 | 82 | 1012.6 |
| 20260505024551 | 35 | 338 | 0.0 | 0.9 | 0.00 | 0.01 | 0.00 | 82 | 1012.5 |